[[{"header":{"parameterUnit":"m.s-1","parameterCategory":1,"la1":30.2992,"la2":30.254,"lo1":-89.0895,"lo2":-89.0443,"dy":0.0025,"dx":0.0025,"nx":19,"ny":19,"refTime":"2026-05-23T03:00:00:Z","depth":0,"parameterNumber":2,"parameterNumberName":"U-component_of_WINDS"},"data":[0,0,0,-3.6943,-3.6946,-3.7073,-3.7073,-3.7255,-3.7257,0,0,0,0,0,0,0,0,0,0,0,-3.6917,-3.6919,-3.6943,-3.6946,-3.7072,-3.7073,-3.7255,-3.7257,0,0,0,0,0,0,0,0,0,0,0,-3.6916,-3.6918,-3.692,-3.6947,-3.7072,-3.7073,-3.7254,-3.7152,0,0,0,0,0,0,0,0,0,0,-3.7026,-3.7012,-3.6918,-3.692,-3.6948,-3.7072,-3.7073,-3.7147,-3.7159,-3.7206,0,-3.725,0,-3.7256,-3.727,-3.7271,0,0,0,-3.6939,-3.7003,-3.7026,-3.692,-3.6949,-3.7072,-3.7013,-3.7153,-3.7166,-3.7222,-3.7253,-3.7259,-3.726,-3.7272,-3.7273,-3.7569,-3.7571,0,0,-3.6932,-3.6946,-3.7017,-3.7036,-3.7016,-3.7009,-3.7017,-3.7161,-3.7196,-3.7253,-3.7263,-3.7263,-3.7273,-3.7274,-3.7568,-3.757,0,0,0,-3.6917,-3.6942,-3.6961,-3.7029,-3.705,-3.7013,-3.7022,-3.719,-3.7195,-3.7265,-3.7265,-3.7274,-3.7276,-3.7566,-3.7568,-3.7667,0,0,0,-3.6912,-3.6933,-3.6959,-3.6969,-3.7047,-3.7121,-3.7049,-3.7185,-3.7201,-3.7264,-3.7274,-3.7278,-3.7564,-3.7567,-3.766,-3.7712,0,0,0,-3.6905,-3.6932,-3.6954,-3.6969,-3.7024,-3.7118,-3.7131,-3.7188,-3.7201,-3.7271,-3.7279,-3.7562,-3.7566,-3.7654,-3.7701,-3.7793,0,0,0,-3.6902,-3.7042,-3.6956,-3.7112,-3.7023,-3.7178,-3.713,-3.7246,-3.7318,-3.7275,-3.7564,-3.7568,-3.7652,-3.7695,-3.7786,-3.7871,-3.7908,0,0,-3.7086,-3.7064,-3.7155,-3.7082,-3.7255,-3.7158,-3.7347,-3.74,-3.7395,-3.7512,-3.7519,-3.7662,-3.7701,-3.7791,-3.8112,-3.8141,0,0,0,-3.7218,-3.7284,-3.7327,-3.7394,-3.7437,-3.7478,-3.7501,-3.752,-3.7618,-3.7457,-3.772,-3.7743,-3.7795,-3.7835,-3.786,-3.7904,-3.7587,-3.7587,-3.7587,-3.7501,-3.7484,-3.7633,-3.7632,-3.7698,-3.7719,-3.7772,-3.7802,-3.7768,-3.7831,-3.7865,-3.8061,-3.8108,-3.8127,-3.8173,-3.7909,-3.791,-3.791,-3.791,-3.7768,-3.7858,-3.7807,-3.7933,-3.7915,-3.8021,-3.8047,-3.8019,-3.8116,-3.8034,-3.808,-3.7991,-3.816,-3.8199,-3.7918,-3.7916,-3.7915,-3.7915,-3.7914,-3.7951,-3.799,-3.801,-3.8105,-3.8181,-3.8176,-3.8271,-3.8252,-3.8236,-3.8281,-3.8314,-3.8313,-3.8308,-3.8298,-3.8299,-3.83,-3.83,-3.8301,-3.8301,-3.8131,-3.815,-3.8231,-3.8287,-3.8327,-3.8378,-3.8401,-3.844,-3.848,-3.8459,-3.8459,-3.8419,-3.8179,-3.8119,-3.8312,-3.831,-3.8308,-3.8307,-3.8307,-3.8407,-3.8341,-3.8466,-3.8506,-3.857,-3.8646,-3.8621,-3.8703,-3.8734,-3.8781,-3.8731,-3.8557,-3.8534,-3.8514,-3.8464,-3.8734,-3.8734,-3.8734,-3.8734,-3.856,-3.8546,-3.8668,-3.8733,-3.8796,-3.8785,-3.8928,-3.8946,-3.8956,-3.8974,-3.8932,-3.8864,-3.8845,-3.8833,-3.8806,-3.8759,-3.9099,-3.9099,-3.9099,-3.8728,-3.8719,-3.8843,-3.8849,-3.8897,-3.8939,-3.9072,-3.9151,-3.9148,-3.9114,-3.8987,-3.8972,-3.8862,-3.8827,-3.879,-3.8748,-3.8661,0,0]},{"header":{"parameterUnit":"m.s-1","parameterCategory":1,"la1":30.2992,"la2":30.254,"lo1":-89.0895,"lo2":-89.0443,"dy":0.0025,"dx":0.0025,"nx":19,"ny":19,"refTime":"2026-05-23T03:00:00:Z","depth":0,"parameterNumber":3,"parameterNumberName":"V-component_of_WINDS"},"data":[0,0,0,2.1382,2.1384,2.1499,2.1499,2.1647,2.1648,0,0,0,0,0,0,0,0,0,0,0,2.1349,2.135,2.1382,2.1385,2.1499,2.1499,2.1647,2.1648,0,0,0,0,0,0,0,0,0,0,0,2.1348,2.135,2.1351,2.1385,2.1498,2.1499,2.1646,2.156,0,0,0,0,0,0,0,0,0,0,2.1449,2.1419,2.1349,2.1351,2.1386,2.1498,2.1499,2.1556,2.1565,2.1596,0,2.1623,0,2.1638,2.1658,2.1659,0,0,0,2.1384,2.1411,2.1441,2.1351,2.1387,2.1498,2.1447,2.1561,2.1572,2.1609,2.1625,2.1631,2.1641,2.1659,2.166,2.1838,2.1839,0,0,2.1378,2.137,2.1433,2.1448,2.143,2.1443,2.1451,2.1567,2.1585,2.1626,2.1634,2.1643,2.166,2.1661,2.1837,2.1838,0,0,0,2.136,2.1366,2.1393,2.1442,2.1462,2.1447,2.1455,2.158,2.1589,2.1636,2.1645,2.1661,2.1663,2.1836,2.1838,2.1872,0,0,0,2.1356,2.1355,2.139,2.1386,2.146,2.1522,2.1465,2.1581,2.1595,2.1644,2.1661,2.1664,2.1835,2.1837,2.1869,2.1889,0,0,0,2.1341,2.1353,2.137,2.1386,2.1434,2.1521,2.1537,2.1584,2.16,2.1659,2.1665,2.1835,2.1837,2.1866,2.1885,2.1934,0,0,0,2.1323,2.1399,2.137,2.1459,2.1433,2.1541,2.1536,2.1617,2.1671,2.1662,2.1835,2.1837,2.1865,2.1882,2.1931,2.1973,2.199,0,0,2.1415,2.141,2.1463,2.144,2.1551,2.1524,2.164,2.1697,2.171,2.1795,2.1799,2.187,2.1885,2.1933,2.2087,2.2101,0,0,0,2.1489,2.1527,2.1558,2.1609,2.1654,2.1695,2.1735,2.1757,2.1829,2.1752,2.1901,2.191,2.1939,2.1959,2.1971,2.1996,2.1847,2.1846,2.1846,2.1608,2.162,2.1708,2.1734,2.1783,2.1824,2.1866,2.1901,2.19,2.1935,2.196,2.2052,2.2076,2.2084,2.2111,2.1983,2.1983,2.1983,2.1983,2.1743,2.1799,2.1794,2.1878,2.189,2.1961,2.2003,2.1999,2.2067,2.2034,2.206,2.2022,2.2099,2.2122,2.1986,2.1986,2.1985,2.1985,2.1985,2.1823,2.1851,2.1875,2.195,2.2007,2.203,2.2096,2.2105,2.2114,2.214,2.2167,2.2167,2.2168,2.2152,2.2152,2.2153,2.2153,2.2153,2.2154,2.1896,2.1922,2.1975,2.2029,2.2063,2.2109,2.2151,2.2184,2.2224,2.2226,2.2226,2.2221,2.2104,2.2074,2.2159,2.2158,2.2157,2.2157,2.2156,2.2029,2.2,2.2083,2.2117,2.2181,2.2237,2.2247,2.2315,2.2344,2.2376,2.2366,2.2277,2.2273,2.2264,2.224,2.2362,2.2362,2.2362,2.2362,2.2097,2.2095,2.2182,2.2235,2.2288,2.2306,2.24,2.2433,2.2462,2.2481,2.2465,2.2433,2.2424,2.2425,2.2413,2.239,2.2548,2.2549,2.2549,2.218,2.2184,2.2261,2.2289,2.234,2.2384,2.2472,2.2534,2.2562,2.2557,2.2496,2.2489,2.2438,2.242,2.2414,2.2395,2.2354,0,0]}]]